Simultaneous Nadir Overpasses (SNOs) Predictions

Prediction of SNOs between AURA and NPP Satellite Orbit:

Table of predicted SNOs for the next 14.0 days since TLE Epoch: 10/15/2022
Index Date (AURA) Time (AURA) Lat,Lon (AURA) SZA (AURA ) Date (NPP) Time (NPP) Lat,Lon (NPP) SZA (NPP ) Distance(km) Time Diff (sec)
1 10/16/2022 10:36:13 79.26, -83.67 100.86 10/16/2022 10:35:03 79.26, -83.58 100.90 1.88 70
2 10/16/2022 11:25:35 -79.46, 85.28 79.40 10/16/2022 11:25:43 -79.45, 85.19 79.39 1.94 8
3 10/19/2022 02:52:41 79.26, 32.23 101.79 10/19/2022 02:51:58 79.25, 32.10 101.85 2.98 43
4 10/19/2022 03:42:00 -79.57,-158.02 78.63 10/19/2022 03:42:34 -79.57,-158.04 78.65 0.43 34
5 10/21/2022 19:09:06 79.34, 148.65 102.60 10/21/2022 19:08:50 79.34, 148.53 102.64 2.70 16
6 10/21/2022 19:58:25 -79.65, -41.56 77.81 10/21/2022 19:59:26 -79.65, -41.56 77.86 0.14 61
7 10/24/2022 10:36:09 -79.20, 96.00 76.33 10/24/2022 10:35:03 -79.20, 95.97 76.27 0.51 66
8 10/24/2022 11:25:26 79.54, -94.12 103.24 10/24/2022 11:25:37 79.55, -93.99 103.21 2.72 11
9 10/27/2022 02:52:32 -79.29,-147.54 75.55 10/27/2022 02:51:55 -79.28,-147.67 75.50 2.94 37



Historial Predications of SNOs between AURA and NPP
